Regional Weather Roundup
Issued by NWS

Home | Current Version | Previous Version | Text Only | Print | Product List | Glossary Off
Versions: 1 2 3 4 5 6 7 8 9 10 11 12 13 14 15 16 17 18 19 20 21 22 23 24 25 26 27 28 29 30 31 32 33 34 35 36 37 38 39 40 41 42 43 44 45 46 47 48 49 50

438
ASUS43 KOAX 252202
RWRNE

WEATHER ROUNDUP FOR NEBRASKA
NATIONAL WEATHER SERVICE OMAHA NE
400 PM CST SUN FEB 25 2018

NOTES: SATELLITE DATA IS BEING USED TO AUGMENT CLOUD COVER ABOVE
       12000 FEET.
       "FAIR" INDICATES FEW OR NO CLOUDS BELOW 12,000 FEET WITH NO
       SIGNIFICANT WEATHER AND/OR OBSTRUCTIONS TO VISIBILITY.


NEZ001>004-019>022-054>056-252300-
NEBRASKA PANHANDLE

CITY           SKY/WX    TMP DP  RH WIND       PRES   REMARKS
SCOTTSBLUFF    SUNNY     37  15  40 W22G35    29.87R WCI  26
ALLIANCE       SUNNY     35  17  47 W18       29.85R WCI  24
CHADRON        SUNNY     34  16  47 W15       29.85R WCI  24
GORDON         FAIR      35  16  46 W8        29.83F WCI  28
KIMBALL        FAIR      35  16  45 W14       29.87S WCI  26
SIDNEY         SUNNY     40   7  25 NW26G38   29.89R WCI  29
$$

NEZ057>060-069>072-079>082-252300-
SOUTHWEST NEBRASKA

CITY           SKY/WX    TMP DP  RH WIND       PRES   REMARKS
NORTH PLATTE   SUNNY     41  19  41 W8        29.93R
IMPERIAL       MOSUNNY   44  13  28 NW16G24   29.92R
LEXINGTON      SUNNY     45  17  32 W16       29.94S
MCCOOK         SUNNY     46  15  28 W16G24    29.94R
OGALLALA       MOSUNNY   43  16  33 W22G29    29.90S
$$

NEZ005>010-023>029-035>040-094-252300-
NORTH CENTRAL NEBRASKA

CITY           SKY/WX    TMP DP  RH WIND       PRES   REMARKS
VALENTINE      SUNNY     37  21  52 W7        29.88R WCI  32
AINSWORTH      SUNNY     35  21  56 W9        29.89R WCI  28
BROKEN BOW     SUNNY     37  22  54 W10       29.92R WCI  30
O`NEILL        SUNNY     35  22  59 W7        29.92R WCI  29
ORD            SUNNY     41  22  46 SW14      29.92S
THEDFORD       SUNNY     38  20  47 W12       29.90S WCI  31
$$

NEZ041-046>049-061>064-073>077-083>087-252300-
SOUTH CENTRAL NEBRASKA

CITY           SKY/WX    TMP DP  RH WIND       PRES   REMARKS
AURORA         SUNNY     47  19  34 W15G23    29.95R
HASTINGS       SUNNY     49  15  25 W18G29    29.94R
HEBRON         MOSUNNY   50  19  28 SW9G20    29.99R
HOLDREGE       SUNNY     48  15  26 W14       29.93S
KEARNEY        SUNNY     46  13  26 W16G26    29.94S
YORK           SUNNY     46  23  39 W15       29.95R
$$

NEZ011>018-030>034-042>045-252300-
NORTHEAST NEBRASKA

CITY           SKY/WX    TMP DP  RH WIND       PRES   REMARKS
NORFOLK        SUNNY     37  24  59 SW7       29.95R WCI  32
ALBION         SUNNY     43  22  43 SW10      29.94R
BLAIR          CLOUDY    40  28  61 SW5       29.98S
COLUMBUS       SUNNY     41  22  46 S5        29.97S
FREMONT        SUNNY     40  26  57 S3        29.99S
TEKAMAH        SUNNY     38  25  59 SW8       30.00R WCI  32
WAYNE          SUNNY     37  19  50 SW9       29.96R WCI  30
$$

NEZ050>053-065>068-078-088>093-252300-
SOUTHEAST NEBRASKA

CITY           SKY/WX    TMP DP  RH WIND       PRES   REMARKS
LINCOLN        MOSUNNY   48  22  35 SW13      29.98F
OMAHA EPPLEY   CLOUDY    42  25  50 SW7       30.01R
BEATRICE       MOSUNNY   48  27  43 SW13      29.99F
FALLS CITY     CLOUDY    47  22  37 SW12      30.03S
NEBRASKA CITY  PTSUNNY   44  31  61 SW8G16    30.01R
PLATTSMOUTH    MOSUNNY   42  32  68 S6        29.99F
$$

NEZ044-045-051>053-067-252300-
OMAHA AREA

CITY           SKY/WX    TMP DP  RH WIND       PRES   REMARKS
OMAHA EPPLEY   CLOUDY    42  25  50 SW7       30.01R
BLAIR          CLOUDY    40  28  61 SW5       29.98S
FREMONT        SUNNY     40  26  57 S3        29.99S
MILLARD        MOSUNNY   44  31  59 S5        30.00S
OFFUTT AFB     MOSUNNY   41  28  58 CALM      30.00S
PLATTSMOUTH    MOSUNNY   42  32  68 S6        29.99F
WAHOO          FAIR      43  27  53 SW3       29.98S
$$




USA.gov is the U.S. government's official web portal to all federal, state and local government web resources and services.